Time,TemperatureF,DewpointF,PressureIn,WindDirection,WindDirectionDegrees,WindSpeedMPH,WindSpeedGustMPH,Humidity,HourlyPrecipIn,Conditions,Clouds,dailyrainin,SoftwareType,DateUTC
2013-03-10 00:09:00,30.2,25.4,30.16,NE,45,0.0,-999.0,82,-99.99,,,0.00,Acu-Link.com,2013-03-10 08:09:00,
2013-03-10 00:24:00,30.2,25.4,30.16,NE,45,0.0,-999.0,82,-99.99,,,0.00,Acu-Link.com,2013-03-10 08:24:00,
2013-03-10 00:39:00,30.2,25.4,30.16,NE,45,0.0,-999.0,82,-99.99,,,0.00,Acu-Link.com,2013-03-10 08:39:00,
2013-03-10 00:54:00,30.2,26.0,30.16,NE,45,0.0,-999.0,84,-99.99,,,0.00,Acu-Link.com,2013-03-10 08:54:00,
2013-03-10 01:09:00,30.2,26.0,30.16,NE,45,0.0,-999.0,84,-99.99,,,0.00,Acu-Link.com,2013-03-10 09:09:00,
2013-03-10 01:25:00,28.4,23.9,30.16,NE,45,0.0,-999.0,83,-99.99,,,0.00,Acu-Link.com,2013-03-10 09:25:00,
2013-03-10 01:40:00,28.4,24.2,30.16,NE,45,0.0,-999.0,84,-99.99,,,0.00,Acu-Link.com,2013-03-10 09:40:00,
2013-03-10 01:55:00,28.4,24.2,30.17,NE,45,0.0,-999.0,84,-99.99,,,0.00,Acu-Link.com,2013-03-10 09:55:00,
2013-03-10 03:10:00,28.4,24.5,30.16,NE,45,0.0,-999.0,85,-99.99,,,0.00,Acu-Link.com,2013-03-10 10:10:00,
2013-03-10 03:25:00,28.4,24.8,30.16,NE,45,0.0,-999.0,86,-99.99,,,0.00,Acu-Link.com,2013-03-10 10:25:00,
2013-03-10 03:40:00,28.4,24.8,30.16,NE,45,0.0,-999.0,86,-99.99,,,0.00,Acu-Link.com,2013-03-10 10:40:00,
2013-03-10 03:55:00,28.4,24.5,30.16,NE,45,0.0,-999.0,85,-99.99,,,0.00,Acu-Link.com,2013-03-10 10:55:00,
2013-03-10 04:11:00,28.4,24.5,30.15,NE,45,0.0,-999.0,85,-99.99,,,0.00,Acu-Link.com,2013-03-10 11:11:00,
2013-03-10 04:26:00,28.4,24.5,30.16,NE,45,0.0,-999.0,85,-99.99,,,0.00,Acu-Link.com,2013-03-10 11:26:00,
2013-03-10 04:41:00,28.4,24.5,30.15,NE,45,0.0,-999.0,85,-99.99,,,0.00,Acu-Link.com,2013-03-10 11:41:00,
2013-03-10 04:56:00,28.4,24.5,30.16,NE,45,0.0,-999.0,85,-99.99,,,0.00,Acu-Link.com,2013-03-10 11:56:00,
2013-03-10 05:12:00,28.4,24.8,30.16,NE,45,0.0,-999.0,86,-99.99,,,0.00,Acu-Link.com,2013-03-10 12:12:00,
2013-03-10 05:27:00,28.4,24.8,30.16,NE,45,0.0,-999.0,86,-99.99,,,0.00,Acu-Link.com,2013-03-10 12:27:00,
2013-03-10 05:42:00,28.4,24.8,30.16,NE,45,0.0,-999.0,86,-99.99,,,0.00,Acu-Link.com,2013-03-10 12:42:00,
2013-03-10 05:57:00,28.4,25.0,30.15,West,270,0.0,-999.0,87,-99.99,,,0.00,Acu-Link.com,2013-03-10 12:57:00,
2013-03-10 06:13:00,28.4,24.8,30.15,SSE,157,0.0,-999.0,86,-99.99,,,0.00,Acu-Link.com,2013-03-10 13:13:00,
2013-03-10 06:28:00,26.6,23.8,30.15,SSE,157,0.0,-999.0,89,-99.99,,,0.00,Acu-Link.com,2013-03-10 13:28:00,
2013-03-10 06:43:00,26.6,23.5,30.14,SSE,157,0.0,-999.0,88,-99.99,,,0.00,Acu-Link.com,2013-03-10 13:43:00,
2013-03-10 06:58:00,26.6,23.5,30.14,SSE,157,0.0,-999.0,88,-99.99,,,0.00,Acu-Link.com,2013-03-10 13:58:00,
2013-03-10 07:13:00,26.6,23.8,30.14,SSE,157,0.0,-999.0,89,-99.99,,,0.00,Acu-Link.com,2013-03-10 14:13:00,
2013-03-10 07:28:00,26.6,23.8,30.14,SSE,157,0.0,-999.0,89,-99.99,,,0.00,Acu-Link.com,2013-03-10 14:28:00,
2013-03-10 07:44:00,26.6,23.8,30.14,SSE,157,0.0,-999.0,89,-99.99,,,0.00,Acu-Link.com,2013-03-10 14:44:00,
2013-03-10 07:59:00,26.6,24.1,30.14,SSE,157,0.0,-999.0,90,-99.99,,,0.00,Acu-Link.com,2013-03-10 14:59:00,
2013-03-10 08:14:00,26.6,23.5,30.14,SSE,157,0.0,-999.0,88,-99.99,,,0.00,Acu-Link.com,2013-03-10 15:14:00,
2013-03-10 08:29:00,28.4,25.3,30.15,SSE,157,0.0,-999.0,88,-99.99,,,0.00,Acu-Link.com,2013-03-10 15:29:00,
2013-03-10 08:44:00,28.4,24.8,30.14,SE,135,0.0,-999.0,86,-99.99,,,0.00,Acu-Link.com,2013-03-10 15:44:00,
2013-03-10 09:00:00,30.2,26.2,30.14,SE,135,1.1,-999.0,85,-99.99,,,0.00,Acu-Link.com,2013-03-10 16:00:00,
2013-03-10 09:15:00,30.2,25.1,30.14,SE,135,0.0,-999.0,81,-99.99,,,0.00,Acu-Link.com,2013-03-10 16:15:00,
2013-03-10 09:30:00,32.0,26.5,30.13,SSW,202,0.0,-999.0,80,-99.99,,,0.00,Acu-Link.com,2013-03-10 16:30:00,
2013-03-10 09:45:00,30.2,24.8,30.14,West,270,0.0,-999.0,80,-99.99,,,0.00,Acu-Link.com,2013-03-10 16:45:00,
2013-03-10 10:00:00,32.0,26.5,30.14,West,270,0.0,-999.0,80,-99.99,,,0.00,Acu-Link.com,2013-03-10 17:00:00,
2013-03-10 10:16:00,32.0,26.2,30.14,West,270,0.0,-999.0,79,-99.99,,,0.00,Acu-Link.com,2013-03-10 17:16:00,
2013-03-10 10:31:00,33.8,25.4,30.14,WSW,247,0.0,-999.0,71,-99.99,,,0.00,Acu-Link.com,2013-03-10 17:31:00,
2013-03-10 10:46:00,35.6,26.5,30.14,WSW,247,0.0,-999.0,69,-99.99,,,0.00,Acu-Link.com,2013-03-10 17:46:00,
2013-03-10 11:01:00,37.4,26.4,30.13,West,270,0.0,-999.0,64,-99.99,,,0.00,Acu-Link.com,2013-03-10 18:01:00,
2013-03-10 11:16:00,39.2,26.5,30.13,East,90,1.6,-999.0,60,-99.99,,,0.00,Acu-Link.com,2013-03-10 18:16:00,
2013-03-10 11:31:00,42.8,26.4,30.13,ESE,112,1.6,-999.0,52,-99.99,,,0.00,Acu-Link.com,2013-03-10 18:31:00,
2013-03-10 11:46:00,42.8,25.9,30.12,NW,315,2.0,-999.0,51,-99.99,,,0.00,Acu-Link.com,2013-03-10 18:46:00,
2013-03-10 12:02:00,42.8,26.9,30.12,WNW,292,3.6,-999.0,53,-99.99,,,0.00,Acu-Link.com,2013-03-10 19:02:00,
2013-03-10 12:17:00,41.0,24.7,30.11,NE,45,3.1,-999.0,52,-99.99,,,0.00,Acu-Link.com,2013-03-10 19:17:00,
2013-03-10 12:32:00,44.6,25.6,30.11,West,270,1.6,-999.0,47,-99.99,,,0.00,Acu-Link.com,2013-03-10 19:32:00,
2013-03-10 12:47:00,42.8,25.5,30.10,West,270,2.0,-999.0,50,-99.99,,,0.00,Acu-Link.com,2013-03-10 19:47:00,
2013-03-10 13:02:00,42.8,25.0,30.10,West,270,2.7,-999.0,49,-99.99,,,0.00,Acu-Link.com,2013-03-10 20:02:00,
2013-03-10 13:18:00,41.0,23.8,30.10,West,270,2.0,-999.0,50,-99.99,,,0.00,Acu-Link.com,2013-03-10 20:18:00,
2013-03-10 13:33:00,42.8,24.5,30.09,WNW,292,2.7,-999.0,48,-99.99,,,0.00,Acu-Link.com,2013-03-10 20:33:00,
2013-03-10 13:48:00,42.8,23.5,30.09,NW,315,4.0,-999.0,46,-99.99,,,0.00,Acu-Link.com,2013-03-10 20:48:00,
2013-03-10 14:03:00,44.6,25.6,30.07,West,270,1.6,-999.0,47,-99.99,,,0.00,Acu-Link.com,2013-03-10 21:03:00,
2013-03-10 14:18:00,44.6,24.1,30.06,NW,315,1.6,-999.0,44,-99.99,,,0.00,Acu-Link.com,2013-03-10 21:18:00,
2013-03-10 14:33:00,42.8,24.0,30.06,ESE,112,2.7,-999.0,47,-99.99,,,0.00,Acu-Link.com,2013-03-10 21:33:00,
2013-03-10 14:48:00,42.8,22.4,30.05,West,270,1.6,-999.0,44,-99.99,,,0.00,Acu-Link.com,2013-03-10 21:48:00,
2013-03-10 15:03:00,42.8,22.9,30.05,SSW,202,1.6,-999.0,45,-99.99,,,0.00,Acu-Link.com,2013-03-10 22:03:00,
2013-03-10 15:19:00,42.8,21.9,30.05,SE,135,4.0,-999.0,43,-99.99,,,0.00,Acu-Link.com,2013-03-10 22:19:00,
2013-03-10 15:34:00,42.8,22.9,30.05,NW,315,2.7,-999.0,45,-99.99,,,0.00,Acu-Link.com,2013-03-10 22:34:00,
2013-03-10 15:49:00,41.0,23.8,30.05,WNW,292,3.6,-999.0,50,-99.99,,,0.00,Acu-Link.com,2013-03-10 22:49:00,
2013-03-10 16:04:00,41.0,24.3,30.06,West,270,2.7,-999.0,51,-99.99,,,0.00,Acu-Link.com,2013-03-10 23:04:00,
2013-03-10 16:19:00,41.0,23.8,30.06,NW,315,2.7,-999.0,50,-99.99,,,0.00,Acu-Link.com,2013-03-10 23:19:00,
2013-03-10 16:34:00,41.0,24.7,30.05,West,270,3.1,-999.0,52,-99.99,,,0.00,Acu-Link.com,2013-03-10 23:34:00,
2013-03-10 16:49:00,41.0,24.3,30.06,WSW,247,3.6,-999.0,51,-99.99,,,0.00,Acu-Link.com,2013-03-10 23:49:00,
2013-03-10 17:05:00,41.0,25.2,30.06,NW,315,3.1,-999.0,53,-99.99,,,0.00,Acu-Link.com,2013-03-11 00:05:00,
2013-03-10 17:20:00,37.4,23.6,30.07,SW,225,4.0,-999.0,57,-99.99,,,0.00,Acu-Link.com,2013-03-11 00:20:00,
2013-03-10 17:35:00,37.4,24.4,30.07,WSW,247,4.7,-999.0,59,-99.99,,,0.00,Acu-Link.com,2013-03-11 00:35:00,
2013-03-10 17:50:00,37.4,24.8,30.07,SE,135,1.6,-999.0,60,-99.99,,,0.00,Acu-Link.com,2013-03-11 00:50:00,
2013-03-10 18:05:00,35.6,23.1,30.07,WNW,292,1.1,-999.0,60,-99.99,,,0.00,Acu-Link.com,2013-03-11 01:05:00,
2013-03-10 18:21:00,35.6,23.9,30.06,WSW,247,2.7,-999.0,62,-99.99,,,0.00,Acu-Link.com,2013-03-11 01:21:00,
2013-03-10 18:51:00,33.8,24.0,30.07,West,270,0.0,-999.0,67,-99.99,,,0.00,Acu-Link.com,2013-03-11 01:51:00,
2013-03-10 19:07:00,32.0,23.0,30.08,East,90,0.0,-999.0,69,-99.99,,,0.00,Acu-Link.com,2013-03-11 02:07:00,
2013-03-10 19:22:00,32.0,23.3,30.08,ESE,112,0.0,-999.0,70,-99.99,,,0.00,Acu-Link.com,2013-03-11 02:22:00,
2013-03-10 19:37:00,30.2,21.9,30.08,ESE,112,0.0,-999.0,71,-99.99,,,0.00,Acu-Link.com,2013-03-11 02:37:00,
2013-03-10 19:52:00,28.4,21.2,30.09,ESE,112,0.0,-999.0,74,-99.99,,,0.00,Acu-Link.com,2013-03-11 02:52:00,
2013-03-10 20:07:00,28.4,21.5,30.09,ESE,112,0.0,-999.0,75,-99.99,,,0.00,Acu-Link.com,2013-03-11 03:07:00,
2013-03-10 20:22:00,28.4,22.1,30.09,West,270,0.0,-999.0,77,-99.99,,,0.00,Acu-Link.com,2013-03-11 03:22:00,
2013-03-10 20:37:00,28.4,22.1,30.11,West,270,0.0,-999.0,77,-99.99,,,0.00,Acu-Link.com,2013-03-11 03:37:00,
2013-03-10 20:52:00,28.4,22.1,30.11,WSW,247,0.0,-999.0,77,-99.99,,,0.00,Acu-Link.com,2013-03-11 03:52:00,
2013-03-10 21:07:00,26.6,21.0,30.12,SSE,157,0.0,-999.0,79,-99.99,,,0.00,Acu-Link.com,2013-03-11 04:07:00,
2013-03-10 21:23:00,26.6,21.6,30.12,SW,225,0.0,-999.0,81,-99.99,,,0.00,Acu-Link.com,2013-03-11 04:23:00,
2013-03-10 21:38:00,26.6,21.6,30.13,East,90,0.0,-999.0,81,-99.99,,,0.00,Acu-Link.com,2013-03-11 04:38:00,
2013-03-10 21:53:00,26.6,21.3,30.13,West,270,0.0,-999.0,80,-99.99,,,0.00,Acu-Link.com,2013-03-11 04:53:00,
2013-03-10 22:08:00,24.8,19.8,30.13,ENE,67,0.0,-999.0,81,-99.99,,,0.00,Acu-Link.com,2013-03-11 05:08:00,
2013-03-10 22:23:00,24.8,19.8,30.14,SSW,202,0.0,-999.0,81,-99.99,,,0.00,Acu-Link.com,2013-03-11 05:23:00,
2013-03-10 22:39:00,23.0,18.6,30.14,East,90,0.0,-999.0,83,-99.99,,,0.00,Acu-Link.com,2013-03-11 05:39:00,
2013-03-10 22:54:00,23.0,18.1,30.15,East,90,0.0,-999.0,81,-99.99,,,0.00,Acu-Link.com,2013-03-11 05:54:00,
2013-03-10 23:09:00,23.0,18.6,30.15,East,90,0.0,-999.0,83,-99.99,,,0.00,Acu-Link.com,2013-03-11 06:09:00,
2013-03-10 23:24:00,23.0,18.9,30.16,West,270,1.1,-999.0,84,-99.99,,,0.00,Acu-Link.com,2013-03-11 06:24:00,
2013-03-10 23:39:00,23.0,18.3,30.17,West,270,0.0,-999.0,82,-99.99,,,0.00,Acu-Link.com,2013-03-11 06:39:00,
2013-03-10 23:55:00,21.2,16.3,30.18,West,270,0.0,-999.0,81,-99.99,,,0.00,Acu-Link.com,2013-03-11 06:55:00,